Mackall AAF, NC

10:44 AM EDT on October 23, 2017 (GMT -0400)
Mackall Army Air Field

Weather History for KHFF - November, 2013

Change the Weather History Date:

Saturday, November 16, 2013

  Actual Average Record
Temperature  
Mean Temperature 60 °F -  
Max Temperature 71 °F 63 °F 82 °F (2011)
Min Temperature 49 °F 39 °F 25 °F (2014)
Degree Days  
Heating Degree Days 4    
Growing Degree Days 10 (Base 50)    
Moisture  
Dew Point 52 °F    
Average Humidity 89    
Maximum Humidity 100    
Minimum Humidity 57    
Precipitation  
Precipitation 0.00 in - - ()
Sea Level Pressure  
Sea Level Pressure 30.24 in    
Wind  
Wind Speed 3 mph (North)    
Max Wind Speed 7 mph    
Max Gust Speed -    
Visibility 8 miles    
Events Fog , Rain    
Averages and records for this station are not official NWS values.
T = Trace of Precipitation, MM = Missing Value Source: NWS Daily Summary

Daily Weather History Graph

Daily Weather History Graph

Search for Another Location

Airport or City:

Trip Planner

Search our weather history database for the weather conditions in past years. The results will help you decide how hot, cold, wet, or windy it might be!

Date:

Astronomy

Nov. 16, 2013 Rise Set
Actual Time 6:53 AM EST 5:11 PM EST
Civil Twilight 6:26 AM EST 5:38 PM EST
Nautical Twilight 5:56 AM EST 6:09 PM EST
Astronomical Twilight 5:26 AM EST 6:39 PM EST
Moon 4:44 PM EST (11/16) 5:50 AM EST (11/16)
Length of Visible Light 11h 11m
Length of Day
10h 17m
Waxing Gibbous, 99% of the Moon is Illuminated
Nov 16
Waxing Gibbous
Nov 17
Full
Nov 25
Last Quarter
Dec 2
New
Dec 9
First Quarter

Hourly Weather History & Observations

Time (EST) Temp. Dew Point Humidity Pressure Visibility Wind Dir Wind Speed Gust Speed Precip Events Conditions
12:16 AM 50.0 °F 48.2 °F 94% 30.22 in 12.0 mi Variable 1.2 mph - N/A   Mostly Cloudy
12:56 AM 50.4 °F 48.4 °F 93% 30.22 in 12.0 mi West 2.3 mph - N/A   Overcast
1:56 AM 51.1 °F 49.6 °F 95% 30.23 in 12.0 mi West 6.9 mph - N/A   Mostly Cloudy
2:16 AM 53.6 °F 50.0 °F 88% 30.23 in 12.0 mi WNW 4.6 mph - N/A   Mostly Cloudy
2:56 AM 52.5 °F 49.8 °F 91% 30.24 in 12.0 mi NNW 2.3 mph - N/A   Mostly Cloudy
3:37 AM 51.8 °F 50.0 °F 94% 30.23 in 10.0 mi North 3.5 mph - N/A   Mostly Cloudy
3:39 AM 51.8 °F 50.0 °F 94% 30.23 in 7.0 mi North 3.5 mph - N/A Rain Light Rain
3:45 AM 51.8 °F 50.0 °F 94% 30.23 in 5.0 mi North 3.5 mph - N/A   Light Drizzle
3:56 AM 52.0 °F 50.2 °F 94% 30.24 in 12.0 mi NNW 3.5 mph - N/A Rain Light Rain Showers
3:58 AM 51.8 °F 50.0 °F 94% 30.23 in 12.0 mi NNW 3.5 mph - N/A   Mostly Cloudy
4:06 AM 51.8 °F 50.0 °F 94% 30.23 in 11.0 mi NNW 5.8 mph - N/A Rain Light Rain Showers
4:28 AM 51.8 °F 50.0 °F 94% 30.23 in 11.0 mi NW 2.3 mph - N/A   Mostly Cloudy
4:56 AM 51.8 °F 50.0 °F 94% 30.24 in 11.0 mi NNW 1.2 mph - N/A   Mostly Cloudy
5:56 AM 51.3 °F 50.0 °F 95% 30.24 in 5.0 mi NNE 3.5 mph - N/A   Mostly Cloudy
6:53 AM 50.0 °F 50.0 °F 100% 30.24 in 7.0 mi NNE 2.3 mph - N/A   Mostly Cloudy
6:56 AM 50.4 °F 48.9 °F 95% 30.25 in 7.0 mi NNE 2.3 mph - N/A   Mostly Cloudy
7:56 AM 51.6 °F 50.4 °F 95% 30.27 in 4.0 mi North 3.5 mph - N/A   Mostly Cloudy
8:16 AM 53.6 °F 50.0 °F 88% 30.26 in 8.0 mi ENE 1.2 mph - N/A   Mostly Cloudy
8:43 AM 55.4 °F 51.8 °F 88% 30.27 in 5.0 mi NE 3.5 mph - N/A   Overcast
8:56 AM 55.4 °F 52.0 °F 88% 30.28 in 4.0 mi NNE 3.5 mph - N/A   Overcast
9:38 AM 59.0 °F 53.6 °F 82% 30.27 in 8.0 mi NNE 4.6 mph - N/A   Overcast
9:48 AM 59.0 °F 55.4 °F 88% 30.27 in 10.0 mi North 3.5 mph - N/A   Mostly Cloudy
9:56 AM 59.9 °F 54.7 °F 83% 30.29 in 10.0 mi NNE 4.6 mph - N/A   Mostly Cloudy
10:32 AM 60.8 °F 55.4 °F 82% 30.27 in 11.0 mi ENE 3.5 mph - N/A   Scattered Clouds
10:56 AM 62.6 °F 55.6 °F 78% 30.28 in 12.0 mi East 3.5 mph - N/A   Clear
11:56 AM 66.6 °F 56.3 °F 69% 30.27 in 12.0 mi Variable 2.3 mph - N/A   Clear
12:56 PM 69.3 °F 56.3 °F 63% 30.24 in 12.0 mi Variable 5.8 mph - N/A   Partly Cloudy
1:56 PM 71.2 °F 55.4 °F 57% 30.22 in 12.0 mi NE 3.5 mph - N/A   Scattered Clouds
2:56 PM 69.1 °F 55.0 °F 61% 30.21 in 12.0 mi NE 4.6 mph - N/A   Mostly Cloudy
3:56 PM 68.4 °F 55.9 °F 64% 30.21 in 12.0 mi ENE 4.6 mph - N/A   Mostly Cloudy
4:56 PM 64.9 °F 55.9 °F 73% 30.22 in 12.0 mi NE 3.5 mph - N/A   Partly Cloudy
5:56 PM 60.1 °F 55.8 °F 86% 30.22 in 12.0 mi NE 2.3 mph - N/A   Clear
6:56 PM 59.0 °F 54.9 °F 86% 30.23 in 12.0 mi ENE 4.6 mph - N/A   Clear
7:56 PM 52.3 °F 50.9 °F 95% 30.23 in 12.0 mi ESE 2.3 mph - N/A   Clear
8:56 PM 50.2 °F 48.6 °F 94% 30.25 in 11.0 mi Calm Calm - N/A   Clear
9:56 PM 52.5 °F 52.0 °F 98% 30.27 in 9.0 mi NNW 6.9 mph - N/A   Mostly Cloudy
10:43 PM 53.6 °F 51.8 °F 94% 30.24 in 2.5 mi ENE 1.2 mph - N/A   Scattered Clouds
10:48 PM 51.8 °F 50.0 °F 94% 30.24 in 1.5 mi West 1.2 mph - N/A   Partly Cloudy
10:53 PM 51.8 °F 50.0 °F 94% 30.24 in 2.2 mi North 1.2 mph - N/A   Partly Cloudy
10:56 PM 51.6 °F 51.1 °F 98% 30.25 in 5.0 mi NNW 1.2 mph - N/A   Partly Cloudy
11:01 PM 51.8 °F 51.8 °F 100% 30.24 in 1.9 mi North 2.3 mph - N/A   Clear
11:06 PM 51.8 °F 50.0 °F 94% 30.24 in 0.6 mi NNW 1.2 mph - N/A Fog Fog
11:26 PM 50.0 °F 50.0 °F 100% 30.24 in 0.4 mi NW 3.5 mph - N/A Fog Fog
11:36 PM 50.0 °F 50.0 °F 100% 30.23 in 0.4 mi ENE 2.3 mph - N/A Fog Fog
11:56 PM 49.8 °F 48.9 °F 97% 30.24 in 0.5 mi Calm Calm - N/A Fog Patches of Fog